Weather History for KLGB - November, 2013

Change the Weather History Date:

Friday, November 1, 2013

  Actual Average Record
Temperature  
Mean Temperature 70 °F 65 °F  
Max Temperature 89 °F 75 °F 101 °F (1966)
Min Temperature 51 °F 55 °F 43 °F (1971)
Degree Days  
Heating Degree Days 0 2  
Month to date heating degree days 0 2  
Since 1 July heating degree days 24 23  
Cooling Degree Days 5 2  
Month to date cooling degree days 5 2  
Year to date cooling degree days 1193 1106  
Growing Degree Days 20 (Base 50)    
Moisture  
Dew Point 39 °F    
Average Humidity 41    
Maximum Humidity 72    
Minimum Humidity 10    
Precipitation  
Precipitation 0.00 in 0.03 in 0.83 in (1983)
Month to date precipitation 0.00 0.03  
Year to date precipitation 3.06 9.34  
Since 1 July precipitation 0.19 0.90  
Sea Level Pressure  
Sea Level Pressure 30.01 in    
Wind  
Wind Speed 3 mph (NW)    
Max Wind Speed 13 mph    
Max Gust Speed 15 mph    
Visibility 10 miles    
Events      
T = Trace of Precipitation, MM = Missing Value Source: NWS Daily Summary

Daily Weather History Graph

Daily Weather History Graph

Search for Another Location

Airport or City:

Trip Planner

Search our weather history database for the weather conditions in past years. The results will help you decide how hot, cold, wet, or windy it might be!

Date:

Astronomy

Nov. 01, 2013 Rise Set
Actual Time 7:12 AM PDT 5:59 PM PDT
Civil Twilight 6:46 AM PDT 6:25 PM PDT
Nautical Twilight 6:16 AM PDT 6:55 PM PDT
Astronomical Twilight 5:47 AM PDT 7:24 PM PDT
Moon 5:14 AM PDT (11/1) 4:52 PM PDT (11/1)
Length of Visible Light 11h 39m
Length of Day
10h 47m
Waning Crescent, 4% of the Moon is Illuminated
Nov 1
Waning Crescent
Nov 3
New
Nov 9
First Quarter
Nov 17
Full
Nov 25
Last Quarter

Hourly Weather History & Observations

Time (PDT) Temp. Dew Point Humidity Pressure Visibility Wind Dir Wind Speed Gust Speed Precip Events Conditions
12:53 AM 59.0 °F 46.0 °F 62% 30.04 in 10.0 mi Calm Calm - N/A   Clear
1:53 AM 55.0 °F 46.0 °F 72% 30.05 in 10.0 mi Calm Calm - N/A   Clear
2:53 AM 54.0 °F 44.1 °F 69% 30.05 in 10.0 mi Calm Calm - N/A   Clear
3:53 AM 54.0 °F 44.1 °F 69% 30.05 in 10.0 mi Calm Calm - N/A   Clear
4:53 AM 53.1 °F 43.0 °F 69% 30.06 in 10.0 mi Calm Calm - N/A   Clear
5:53 AM 52.0 °F 42.1 °F 69% 30.07 in 10.0 mi Calm Calm - N/A   Clear
6:53 AM 53.1 °F 42.1 °F 66% 30.07 in 10.0 mi Calm Calm - N/A   Clear
7:53 AM 54.0 °F 41.0 °F 62% 30.08 in 10.0 mi NW 4.6 mph - N/A   Clear
8:53 AM 61.0 °F 39.9 °F 46% 30.09 in 9.0 mi North 3.5 mph - N/A   Clear
9:53 AM 68.0 °F 39.0 °F 35% 30.09 in 9.0 mi NW 4.6 mph - N/A   Clear
10:53 AM 75.0 °F 34.0 °F 22% 30.08 in 10.0 mi Calm Calm - N/A   Clear
11:53 AM 82.0 °F 30.0 °F 15% 30.06 in 10.0 mi North 4.6 mph - N/A   Clear
12:53 PM 82.9 °F 26.1 °F 13% 30.03 in 10.0 mi Calm Calm - N/A   Clear
1:53 PM 86.0 °F 25.0 °F 11% 30.00 in 10.0 mi Variable 3.5 mph - N/A   Clear
2:53 PM 86.0 °F 35.1 °F 16% 29.97 in 10.0 mi Calm Calm - N/A   Clear
3:53 PM 88.0 °F 24.1 °F 10% 29.94 in 10.0 mi Variable 3.5 mph - N/A   Clear
4:53 PM 82.9 °F 37.0 °F 19% 29.92 in 10.0 mi WNW 12.7 mph - N/A   Clear
5:53 PM 77.0 °F 36.0 °F 23% 29.93 in 10.0 mi West 8.1 mph - N/A   Clear
6:53 PM 73.0 °F 39.9 °F 30% 29.93 in 10.0 mi WNW 6.9 mph - N/A   Clear
7:53 PM 70.0 °F 43.0 °F 38% 29.94 in 10.0 mi WNW 6.9 mph - N/A   Clear
8:53 PM 68.0 °F 45.0 °F 43% 29.95 in 10.0 mi NW 5.8 mph - N/A   Clear
9:53 PM 66.0 °F 46.0 °F 48% 29.96 in 10.0 mi West 3.5 mph - N/A   Clear
10:53 PM 61.0 °F 46.0 °F 58% 29.98 in 10.0 mi ENE 4.6 mph - N/A   Clear
11:53 PM 62.1 °F 45.0 °F 53% 29.98 in 10.0 mi NNW 3.5 mph - N/A   Clear